Flag for U.S.A. Weather past 2 weeks in Compton, California, U.S.A.

Now
61 °F

Overcast.


Feels Like: 61 °F
Forecast: 58 / 75 °F
Wind: 5 mph from North

Location: Hawthorne Municipal Airport

Current Time: May 28, 2015 at 8:02:52 AM

Latest Report: May 28, 2015 at 6:53 AM


Visibility: 7 mi

Pressure: 29.98 "Hg

Humidity: 78%

Dew point: 54 °F

Location of ComptonLocation

Historic Weather in Compton — Graph

°F

Compton temperature yesterday

Maximum temperature yesterday: 69 °F (at 12:53 PM)
Minimum temperature yesterday: 61 °F (at 12:53 AM)
Average temperature yesterday: 64 °F

Past Weeks' High & Low Weather Summary

 TemperatureHumidityPressure
High70 °F (May 16, 3:53 PM)84% (May 14, 1:53 PM)30.09 "Hg (May 14, 1:53 PM)
Low56 °F (May 15, 6:53 AM)47% (May 13, 1:53 PM)29.84 "Hg (May 15, 6:53 PM)
Average63 °F67%29.98 "Hg
* Reported May 13 6:53 AM — May 28 6:53 AM, Compton, Weather by CustomWeather, © 2015

Note: Actual official high and low records may vary slightly from our data, if they occured in-between our weather recording intervals... More about our weather records

Advertising

Compton weather history for previous 24 hours

 ConditionsComfort  
Time TempWeatherWind HumidityBarometerVisibility
6:53 AM
Thu, May 28
61 °FOvercast.5 mph78%29.98 "Hg7 mi
5:53 AM61 °FOvercast.5 mph78%29.97 "Hg10 mi
4:53 AM60 °FPartly cloudy.No wind80%29.96 "Hg10 mi
3:53 AM60 °FOvercast.No wind80%29.95 "Hg10 mi
2:53 AM60 °FOvercast.3 mph83%29.96 "Hg10 mi
1:53 AM61 °FClear.5 mph81%29.97 "Hg10 mi
12:53 AM61 °FClear.3 mph81%29.98 "Hg10 mi
11:53 PM
Wed, May 27
61 °FClear.3 mph78%29.99 "Hg10 mi
10:53 PM62 °FClear.8 mph73%29.99 "Hg10 mi
9:53 PM62 °FClear.7 mph75%29.98 "Hg10 mi
8:53 PM62 °FSunny.5 mph75%29.98 "Hg10 mi
7:53 PM63 °FSunny.9 mph73%29.97 "Hg10 mi
6:53 PM65 °FSunny.12 mph68%29.96 "Hg10 mi
5:53 PM66 °FSunny.13 mph65%29.95 "Hg10 mi
4:53 PM68 °FPassing clouds.13 mph63%29.96 "Hg10 mi
3:53 PM68 °FSunny.10 mph61%29.96 "Hg10 mi
2:53 PM68 °FSunny.10 mph59%29.97 "Hg10 mi
1:53 PM68 °FSunny.7 mph59%29.98 "Hg10 mi
12:53 PM69 °FScattered clouds.9 mph57%30.00 "Hg10 mi
11:53 AM67 °FOvercast.7 mph63%30.00 "Hg10 mi
10:53 AM65 °FOvercast.5 mph66%30.00 "Hg10 mi
9:53 AM63 °FOvercast.8 mph70%30.01 "Hg10 mi
8:53 AM62 °FOvercast.7 mph73%30.01 "Hg10 mi
Weather by CustomWeather, © 2015

See weather overviewHow to use our weather pages